[[{"header":{"parameterUnit":"m.s-1","parameterCategory":1,"la1":30.2991,"la2":30.254,"lo1":-89.0895,"lo2":-89.0444,"dy":0.0017,"dx":0.0017,"nx":28,"ny":28,"refTime":"2025-02-25T03:00:00:Z","depth":0,"parameterNumber":2,"parameterNumberName":"U-component_of_WINDS"},"data":[0,0,0,0,0,0,0,0,0,0,0,0,0,0,0,0,0,0,0,0,0,0,0,0,0,0,0,0,0,0,0,0,0,0,0,0,0,0,0,0,0,0,0,0,0,0,0,0,0,0,0,0,0,0,0,0,0,0,0.391,0.391,0,0.3952,0.3952,0.3953,0.3976,0.3976,0.3976,0.3976,0.402,0.4022,0.4023,0,0,0,0,0,0,0,0,0,0,0,0,0,0.3852,0.3853,0.391,0.3911,0.3911,0.3952,0.3952,0.3953,0.3976,0.3976,0.3976,0.3976,0.402,0.4021,0.4023,0,0,0,0,0,0,0,0,0,0,0,0,0,0.3884,0.3853,0.391,0.3927,0.3929,0.3952,0.3952,0.3953,0.3976,0.3976,0.3976,0.3976,0.402,0.4021,0.4023,0.4031,0,0,0.4028,0.4029,0,0,0,0,0,0,0,0,0.3882,0.3886,0.3924,0.3926,0.3929,0.3959,0.3948,0.3979,0.3976,0.3958,0.3976,0.3977,0.4,0.4003,0.4011,0.4033,0.4035,0.4028,0.4029,0.403,0.403,0,0,0,0,0,0,0,0.388,0.3884,0.3927,0.3925,0.3928,0.3934,0.3939,0.3954,0.3978,0.396,0.3962,0.3966,0.4001,0.4009,0.4012,0.4036,0.4028,0.403,0.4031,0.4031,0.4069,0.4069,0,0,0,0,0,0,0.3875,0.3882,0.3925,0.3928,0.3905,0.3935,0.394,0.3949,0.3978,0.3983,0.3966,0.3967,0.4006,0.401,0.4014,0.4026,0.403,0.4031,0.4032,0.4069,0.4069,0.4069,0,0,0,0,0,0,0.3873,0.3878,0.3924,0.3906,0.3912,0.3936,0.3946,0.395,0.3958,0.3983,0.3987,0.397,0.4007,0.4011,0.4027,0.4028,0.4032,0.4034,0.4069,0.4069,0.4069,0.405,0,0,0,0,0,0,0.3872,0.3878,0.388,0.3906,0.3913,0.3935,0.3946,0.3951,0.3961,0.3962,0.3988,0.3992,0.4007,0.4024,0.4029,0.403,0.4035,0.4069,0.4069,0.4069,0.4051,0.405,0.4049,0,0,0,0,0,0.3869,0.3874,0.388,0.3885,0.3917,0.3935,0.394,0.3957,0.3961,0.3964,0.398,0.3991,0.4027,0.4026,0.4031,0.4033,0.4069,0.4069,0.4069,0.4051,0.405,0.4049,0,0,0,0,0,0,0.3848,0.3877,0.3885,0.3897,0.3914,0.3939,0.3944,0.3954,0.397,0.3971,0.3992,0.3998,0.4011,0.4024,0.4022,0.4043,0.4049,0.405,0.4034,0.4033,0.4032,0.4029,0.4036,0,0,0,0,0,0.3845,0.3857,0.3882,0.3891,0.3898,0.392,0.3928,0.394,0.3958,0.3965,0.3983,0.4,0.4015,0.4025,0.4041,0.4053,0.4059,0.4057,0.4056,0.4055,0.4056,0.4064,0.4064,0.4069,0.4069,0.4069,0,0,0.3838,0.3856,0.3862,0.3887,0.3901,0.3913,0.3925,0.3938,0.3948,0.3967,0.3983,0.3996,0.4017,0.4032,0.4039,0.4042,0.4056,0.4055,0.4054,0.4055,0.4064,0.4064,0.4063,0.4069,0.4069,0.4069,0,0,0.3833,0.3847,0.3856,0.387,0.3891,0.3905,0.3907,0.3932,0.3941,0.3957,0.3972,0.3985,0.4011,0.4025,0.4036,0.4038,0.4048,0.4042,0.4036,0.4044,0.4044,0.4043,0.4045,0.4045,0.4043,0.4043,0.4043,0,0.3822,0.3841,0.3859,0.3871,0.3882,0.39,0.391,0.3923,0.3948,0.3956,0.3959,0.3993,0.4008,0.4027,0.4027,0.4035,0.4039,0.4039,0.4042,0.4042,0.4042,0.4044,0.4044,0.4042,0.4042,0.4042,0.4042,0,0.3827,0.384,0.3845,0.3869,0.388,0.3891,0.3912,0.3922,0.3933,0.3947,0.3964,0.3983,0.4003,0.4009,0.402,0.4029,0.4031,0.4038,0.4044,0.4041,0.4042,0.4043,0.404,0.4041,0.4041,0.4041,0,0,0.3808,0.3843,0.3844,0.3856,0.3881,0.3892,0.3904,0.3924,0.3932,0.3949,0.396,0.3982,0.399,0.4002,0.4015,0.4022,0.4023,0.4029,0.403,0.4027,0.4035,0.403,0.403,0.403,0.4031,0.4031,0.4034,0,0.3807,0.3829,0.3846,0.3862,0.3875,0.3893,0.3904,0.3921,0.3935,0.3949,0.3965,0.398,0.3988,0.3996,0.4004,0.4021,0.4025,0.4021,0.4042,0.4042,0.4036,0.4031,0.4024,0.4026,0.4034,0.4035,0.4035,0,0.3807,0.3824,0.3841,0.3865,0.3872,0.3881,0.3901,0.3913,0.3934,0.3944,0.3958,0.3972,0.3987,0.3992,0.4013,0.401,0.402,0.403,0.403,0.4033,0.4038,0.4033,0.4027,0.4027,0.4036,0.4036,0.4035,0,0.3792,0.3819,0.3833,0.3842,0.3871,0.3877,0.389,0.391,0.3921,0.3939,0.3947,0.3966,0.3976,0.3992,0.4011,0.4013,0.403,0.4037,0.4039,0.4039,0.4042,0.4042,0.4037,0.4048,0.4048,0.4048,0.4048,0,0.3788,0.3798,0.3826,0.3835,0.3847,0.3867,0.3879,0.3893,0.3912,0.3924,0.3941,0.3953,0.3977,0.3992,0.4007,0.4023,0.4027,0.4036,0.404,0.4035,0.4034,0.4041,0.4042,0.4048,0.4048,0.4048,0.4048,0,0.3774,0.3793,0.3809,0.3836,0.3843,0.385,0.3873,0.3883,0.3898,0.3914,0.3919,0.3943,0.3961,0.3982,0.4007,0.4017,0.4032,0.4038,0.4025,0.4028,0.4029,0.4029,0.403,0.4031,0.404,0.404,0.404,0,0.377,0.3778,0.3805,0.3814,0.3826,0.3841,0.3853,0.3874,0.3885,0.3909,0.3916,0.3936,0.3952,0.3981,0.4002,0.4021,0.4028,0.4027,0.4031,0.4025,0.4028,0.4027,0.4029,0.4025,0.4025,0.4025,0.4025,0,0.3761,0.377,0.3786,0.3805,0.3818,0.3834,0.3851,0.3858,0.3882,0.3895,0.3913,0.3926,0.3952,0.3972,0.3994,0.4008,0.4021,0.4024,0.4025,0.402,0.4012,0.4017,0.4022,0.4023,0.4023,0.4024,0.4024,0.4024,0.3752,0.376,0.3781,0.3798,0.3813,0.3829,0.3839,0.3856,0.3872,0.3894,0.3906,0.3925,0.3946,0.3978,0.3992,0.4007,0.4011,0.4014,0.4014,0.4015,0.4013,0.401,0.4011,0.4011,0.4012,0.4012,0.4012,0,0.3744,0.3759,0.3774,0.3797,0.3811,0.3822,0.3841,0.3852,0.3868,0.3887,0.3903,0.3926,0.3945,0.3967,0.3988,0.3997,0.4003,0.4002,0.4001,0.4005,0.4008,0.4005,0.3996,0.3996,0.3996,0.3996,0.3996,0.3996,0.3742,0.3757,0.3769,0.3792,0.3807,0.3825,0.3835,0.385,0.3865,0.3889,0.3905,0.392,0.394,0.3963,0.3982,0.3988,0.3995,0.3992,0.4,0.4003,0.4004,0.4005,0.4002,0.3993,0.3993,0.3995,0.3995,0.3995]},{"header":{"parameterUnit":"m.s-1","parameterCategory":1,"la1":30.2991,"la2":30.254,"lo1":-89.0895,"lo2":-89.0444,"dy":0.0017,"dx":0.0017,"nx":28,"ny":28,"refTime":"2025-02-25T03:00:00:Z","depth":0,"parameterNumber":3,"parameterNumberName":"V-component_of_WINDS"},"data":[0,0,0,0,0,0,0,0,0,0,0,0,0,0,0,0,0,0,0,0,0,0,0,0,0,0,0,0,0,0,0,0,0,0,0,0,0,0,0,0,0,0,0,0,0,0,0,0,0,0,0,0,0,0,0,0,0,0,-1.9672,-1.9673,0,-1.9776,-1.9777,-1.9778,-1.9816,-1.9815,-1.9815,-1.9815,-1.9921,-1.9924,-1.9928,0,0,0,0,0,0,0,0,0,0,0,0,0,-1.9509,-1.9512,-1.9672,-1.9673,-1.9675,-1.9776,-1.9777,-1.9778,-1.9816,-1.9815,-1.9815,-1.9814,-1.992,-1.9924,-1.9928,0,0,0,0,0,0,0,0,0,0,0,0,0,-1.9593,-1.9512,-1.9672,-1.9706,-1.971,-1.9775,-1.9777,-1.9779,-1.9816,-1.9815,-1.9815,-1.9814,-1.9919,-1.9924,-1.9928,-1.9968,0,0,-1.9943,-1.9945,0,0,0,0,0,0,0,0,-1.9588,-1.9599,-1.9699,-1.9703,-1.9708,-1.9782,-1.9759,-1.9842,-1.9816,-1.9776,-1.9815,-1.9814,-1.9876,-1.9884,-1.9904,-1.9973,-1.9978,-1.9943,-1.9946,-1.9948,-1.995,0,0,0,0,0,0,0,-1.9582,-1.9594,-1.9713,-1.9701,-1.9706,-1.9716,-1.9727,-1.9775,-1.9827,-1.9779,-1.9782,-1.9794,-1.9878,-1.99,-1.9907,-1.998,-1.9943,-1.9947,-1.995,-1.9952,-2.0088,-2.0089,0,0,0,0,0,0,-1.957,-1.9589,-1.971,-1.9716,-1.9645,-1.9719,-1.9732,-1.9759,-1.9827,-1.9837,-1.9794,-1.9795,-1.9892,-1.9902,-1.9911,-1.9963,-1.9948,-1.9953,-1.9955,-2.0087,-2.0088,-2.0089,0,0,0,0,0,0,-1.9567,-1.9581,-1.9706,-1.9654,-1.967,-1.9723,-1.9753,-1.9761,-1.9783,-1.9838,-1.9848,-1.9807,-1.9892,-1.9904,-1.9954,-1.9967,-1.9955,-1.9959,-2.0086,-2.0087,-2.0089,-2.0067,0,0,0,0,0,0,-1.9562,-1.9579,-1.9594,-1.9654,-1.9673,-1.9746,-1.9753,-1.9764,-1.9791,-1.9794,-1.9853,-1.9862,-1.9892,-1.9947,-1.9959,-1.9974,-1.9963,-2.0085,-2.0087,-2.0088,-2.0067,-2.0067,-2.0068,0,0,0,0,0,-1.9556,-1.9584,-1.9595,-1.9609,-1.9693,-1.9747,-1.9758,-1.9792,-1.9792,-1.9808,-1.9844,-1.986,-1.9964,-1.9952,-1.9965,-1.9982,-2.0085,-2.0086,-2.0088,-2.0067,-2.0067,-2.0068,0,0,0,0,0,0,-1.9525,-1.9593,-1.9605,-1.9653,-1.9694,-1.9753,-1.9775,-1.9792,-1.9834,-1.9834,-1.9875,-1.9888,-1.9935,-1.9964,-1.9948,-2.0025,-2.0025,-2.003,-2.0004,-2.0006,-2.0006,-1.9998,-1.9967,0,0,0,0,0,-1.9524,-1.9562,-1.9619,-1.9656,-1.9676,-1.9722,-1.9746,-1.9769,-1.9813,-1.9831,-1.987,-1.9912,-1.9955,-1.9982,-2.0024,-2.0071,-2.0085,-2.009,-2.009,-2.009,-2.0094,-2.0122,-2.0125,-2.0094,-2.0094,-2.0094,0,0,-1.9522,-1.9563,-1.9585,-1.9651,-1.9685,-1.9724,-1.9736,-1.9776,-1.9806,-1.9837,-1.9887,-1.9917,-1.9967,-2.0016,-2.004,-2.0041,-2.0105,-2.0092,-2.0092,-2.0096,-2.0124,-2.0127,-2.0129,-2.0096,-2.0095,-2.0095,0,0,-1.9538,-1.9573,-1.9608,-1.9642,-1.9694,-1.9725,-1.9733,-1.979,-1.9811,-1.9862,-1.9886,-1.9922,-1.9994,-2.0029,-2.0056,-2.0087,-2.0104,-2.01,-2.0102,-2.0129,-2.0132,-2.0134,-2.0145,-2.0149,-2.0103,-2.0103,-2.0103,0,-1.9529,-1.9588,-1.9624,-1.9664,-1.9692,-1.9723,-1.9759,-1.9791,-1.9854,-1.9873,-1.9874,-1.9966,-2.0002,-2.006,-2.0067,-2.0088,-2.01,-2.0093,-2.0128,-2.0131,-2.0134,-2.0145,-2.0149,-2.0102,-2.0102,-2.0102,-2.0102,0,-1.9575,-1.9615,-1.9638,-1.9698,-1.9729,-1.9767,-1.9809,-1.9837,-1.9857,-1.9888,-1.9939,-1.9984,-2.0036,-2.0051,-2.0071,-2.0113,-2.0112,-2.012,-2.0121,-2.0135,-2.0147,-2.0151,-2.0101,-2.0101,-2.0101,-2.0102,0,0,-1.9574,-1.9654,-1.9662,-1.969,-1.975,-1.9782,-1.9822,-1.9873,-1.9896,-1.9938,-1.9973,-2.0034,-2.0042,-2.0073,-2.0098,-2.0121,-2.0144,-2.0127,-2.0129,-2.0129,-2.0193,-2.0186,-2.0191,-2.0155,-2.0156,-2.0157,-2.0188,0,-1.9598,-1.9669,-1.9704,-1.976,-1.9799,-1.9829,-1.9864,-1.9905,-1.9935,-1.9972,-2.0006,-2.0048,-2.0056,-2.0075,-2.0099,-2.0135,-2.0157,-2.0134,-2.0188,-2.019,-2.0175,-2.0197,-2.019,-2.0217,-2.0193,-2.0194,-2.0194,0,-1.9636,-1.9678,-1.9739,-1.9795,-1.9813,-1.9843,-1.9893,-1.9929,-1.9976,-1.9996,-2.0031,-2.0055,-2.0099,-2.0097,-2.0158,-2.0142,-2.0166,-2.0188,-2.0189,-2.0196,-2.0193,-2.0204,-2.0227,-2.0231,-2.0202,-2.0201,-2.0201,0,-1.9629,-1.9702,-1.9748,-1.9771,-1.9838,-1.9859,-1.9888,-1.9935,-1.9963,-2.0007,-2.0026,-2.0075,-2.0101,-2.0138,-2.0175,-2.017,-2.0233,-2.0234,-2.0251,-2.025,-2.0263,-2.0262,-2.029,-2.0278,-2.0278,-2.0278,-2.0278,0,-1.9653,-1.9689,-1.9746,-1.9774,-1.9816,-1.9855,-1.9896,-1.9927,-1.9969,-2.0004,-2.0033,-2.0066,-2.0113,-2.0151,-2.0181,-2.0227,-2.0239,-2.0257,-2.0264,-2.0254,-2.0252,-2.0271,-2.027,-2.0279,-2.0279,-2.0279,-2.0278,0,-1.9653,-1.9692,-1.9745,-1.9804,-1.982,-1.9848,-1.9899,-1.9928,-1.996,-2.0004,-2.0017,-2.0067,-2.0114,-2.0155,-2.0217,-2.0237,-2.0285,-2.0294,-2.0269,-2.0273,-2.0288,-2.0286,-2.033,-2.0338,-2.032,-2.032,-2.032,0,-1.9665,-1.9693,-1.9756,-1.9782,-1.981,-1.9851,-1.9881,-1.9921,-1.9951,-2.0008,-2.003,-2.008,-2.0122,-2.0196,-2.0238,-2.0286,-2.0296,-2.0308,-2.0304,-2.0293,-2.0297,-2.0295,-2.0299,-2.0308,-2.0308,-2.0308,-2.0308,0,-1.9683,-1.9702,-1.9743,-1.9792,-1.9826,-1.9866,-1.9908,-1.9927,-1.9975,-2.0007,-2.0056,-2.0089,-2.0153,-2.0202,-2.0254,-2.0285,-2.0305,-2.031,-2.0316,-2.0307,-2.0291,-2.03,-2.027,-2.0308,-2.0308,-2.0308,-2.0308,-2.0308,-1.969,-1.9717,-1.9766,-1.9811,-1.9846,-1.9885,-1.9915,-1.9951,-1.9992,-2.0047,-2.0069,-2.0119,-2.0167,-2.024,-2.0271,-2.0311,-2.0314,-2.0323,-2.0326,-2.0327,-2.0326,-2.0285,-2.032,-2.032,-2.032,-2.0321,-2.0321,0,-1.971,-1.9743,-1.9784,-1.9841,-1.9877,-1.9893,-1.994,-1.9969,-2.0013,-2.0056,-2.0096,-2.0153,-2.0201,-2.0247,-2.0298,-2.0321,-2.0332,-2.0333,-2.0332,-2.0339,-2.032,-2.031,-2.0324,-2.0324,-2.0324,-2.0323,-2.0323,-2.0323,-1.9725,-1.9772,-1.9796,-1.9861,-1.9894,-1.9944,-1.9969,-2.0005,-2.0039,-2.0101,-2.0141,-2.0171,-2.0216,-2.027,-2.0315,-2.0327,-2.0345,-2.0344,-2.0359,-2.0341,-2.034,-2.0339,-2.0329,-2.0347,-2.0347,-2.0374,-2.0374,-2.0374]}]]